User: anonymous   Login
Location: Caltech
(34.1382°N, 118.1253°W)
Time: 14:20:03
(UTC-07:00)
Language:

Cosmos 1833 - Orbit

View from above orbital plane
View from above orbital plane
View from above satellite
View from above satellite

Ground track
Ground track

The orbit data is extracted from the following two-line orbital elements,

1 17589U 87027A   14296.83752948  .00000363  00000-0  22103-3 0  8488
2 17589 070.9187 057.5347 0011608 316.2920 206.3090 14.12832886423679
Epoch (UTC): 23 October 2014 20:06:02
Eccentricity: 0.0011608
inclination: 70.9187°
perigee height: 841 km
apogee height: 858 km
right ascension of ascending node: 57.5347°
argument of perigee: 316.2920°
revolutions per day: 14.12832886
mean anomaly at epoch: 206.3090°
orbit number at epoch: 42367

The dashed part of the orbit path shows where the satellite is in the earth's shadow,  

DLR